Location: Fisheating Creek Campgrounds
(26.9333°N, 81.3167°W)
Time: 18:18:24
(UTC-04:00)

Cosmos 2221 Rocket - Visible Passes

Search period start: 20 April 2014 00:00
Search period end: 30 April 2014 00:00
Orbit: 622 x 650 km, 82.5° (Epoch: 20 April)

Date Brightness Start Highest point End Pass type
(mag) Time Alt. Az. Time Alt. Az. Time Alt. Az.
21 Apr 6.4 05:37:17 10° NNE 05:40:42 21° E 05:44:06 10° SE visible
22 Apr 4.7 05:59:07 10° N 06:03:30 49° E 06:07:54 10° SSE visible
23 Apr 3.6 06:21:42 10° NNW 06:26:11 67° W 06:30:41 10° S visible
24 Apr 6.6 05:07:39 10° NE 05:10:38 17° ENE 05:13:37 10° ESE visible
25 Apr 5.1 05:29:12 10° NNE 05:33:28 40° E 05:37:44 10° SSE visible
26 Apr 3.6 05:51:38 10° N 05:56:11 83° W 06:00:43 10° S visible
27 Apr 6.6 04:38:09 10° NE 04:40:33 14° ENE 04:42:57 10° ESE visible
27 Apr 4.3 06:14:42 10° NNW 06:18:47 33° W 06:22:51 10° SSW visible
28 Apr 5.4 04:59:20 10° NNE 05:03:25 32° E 05:07:29 10° SE visible
29 Apr 3.7 05:21:36 10° N 05:26:09 80° E 05:30:42 10° S visible
